CW5404 Weather Reports


time (UTC)temp
C
wind
direction
speed
KPH
gust
KPH
rain 1hr
cm
rain 24hr
cm
rain mn
cm
humidity
%
barometer
mb
20260906193445 14 360 0.0 3.2 0.05 1.63 1.63 100 1016.6
20260906192945 14 360 0.0 3.2 0.05 1.63 1.63 100 1016.6
20260906192447 14 360 1.6 4.8 0.05 1.63 1.63 100 1016.6
20260906191445 14 360 0.0 4.8 0.03 1.60 1.60 100 1016.6
20260906190445 14 360 4.8 4.8 0.03 1.60 1.60 100 1016.6
20260906185945 14 360 3.2 4.8 0.03 1.60 1.60 100 1016.6
20260906185445 14 360 1.6 3.2 0.00 1.57 1.57 100 1016.6
20260906184945 14 360 3.2 4.8 0.03 1.57 1.57 100 1016.6
20260906184444 14 360 3.2 4.8 0.03 1.57 1.57 100 1016.6
20260906183444 14 360 1.6 4.8 0.03 1.57 1.57 100 1016.4
20260906182944 14 360 3.2 4.8 0.03 1.57 1.57 100 1016.4
20260906182444 14 360 1.6 4.8 0.05 1.57 1.57 100 1016.2
20260906181944 14 360 4.8 4.8 0.05 1.57 1.57 100 1016.2
20260906181444 14 360 1.6 4.8 0.05 1.57 1.57 100 1016.2
20260906180944 14 360 0.0 4.8 0.05 1.57 1.57 100 1016.2
20260906180444 14 360 3.2 4.8 0.05 1.57 1.57 100 1016.2
20260906175444 14 360 1.6 3.2 0.08 1.57 1.57 100 1016.1
20260906174944 14 360 1.6 3.2 0.05 1.55 1.55 100 1016.1
20260906173944 14 318 0.0 0.0 0.08 1.55 1.55 100 1015.9
20260906173444 14 319 0.0 0.0 0.08 1.55 1.55 100 1015.9
20260906172945 13 329 0.0 1.6 0.08 1.55 1.55 100 1015.9
20260906171944 13 329 0.0 3.2 0.05 1.52 1.52 100 1015.7
20260906171444 13 244 0.0 3.2 0.08 1.52 1.52 100 1015.7
20260906170946 13 196 0.0 3.2 0.08 1.52 1.52 100 1015.8
20260906170444 13 314 1.6 3.2 0.08 1.52 1.52 100 1015.8
20260906165944 13 250 0.0 4.8 0.05 1.50 1.50 100 1015.8
20260906165444 13 244 0.0 4.8 0.05 1.50 1.50 100 1015.9
20260906164944 13 71 3.2 3.2 0.05 1.52 1.50 100 1015.9
20260906164444 13 270 1.6 1.6 0.08 1.52 1.50 100 1015.9
20260906163944 13 204 0.0 3.2 0.05 1.50 1.47 100 1015.9
20260906163443 13 348 0.0 3.2 0.08 1.50 1.47 100 1015.9
20260906163014 13 125 0.0 1.6 0.08 1.50 1.47 100 1015.9
20260906162443 13 125 1.6 1.6 0.10 1.50 1.47 100 1015.9
20260906161444 13 115 0.0 0.0 0.13 1.47 1.45 100 1015.9
20260906160445 13 115 0.0 0.0 0.15 1.47 1.45 100 1015.9
20260906160014 13 115 0.0 0.0 0.15 1.47 1.45 100 1015.9
20260906155444 13 115 0.0 0.0 0.15 1.47 1.45 100 1016.0
20260906154945 13 115 0.0 0.0 0.15 1.47 1.45 100 1016.0
20260906153943 13 115 0.0 0.0 0.15 1.45 1.42 100 1016.0
20260906153443 13 115 0.0 0.0 0.13 1.42 1.40 100 1016.0
20260906152944 13 115 0.0 0.0 0.13 1.42 1.40 100 1016.0
20260906152513 13 115 0.0 0.0 0.10 1.40 1.37 100 1015.9
20260906150943 13 115 0.0 0.0 0.08 1.35 1.32 100 1015.6
20260906145943 13 115 0.0 0.0 0.08 1.32 1.30 100 1015.6
20260906145443 13 115 0.0 0.0 0.10 1.32 1.30 100 1015.5
20260906144943 13 115 0.0 0.0 0.10 1.32 1.30 100 1015.5
20260906144443 13 115 0.0 0.0 0.10 1.32 1.30 100 1015.5
20260906143943 13 115 0.0 0.0 0.08 1.30 1.27 100 1015.2
20260906143443 13 115 0.0 0.0 0.08 1.30 1.27 100 1015.2
20260906142943 13 115 0.0 0.0 0.08 1.30 1.27 100 1015.2
20260906141943 13 115 0.0 1.6 0.10 1.30 1.27 100 1015.1
20260906141442 13 115 0.0 1.6 0.08 1.27 1.24 100 1015.1
20260906140943 13 115 0.0 1.6 0.08 1.27 1.24 100 1015.1
20260906140443 13 115 0.0 1.6 0.05 1.24 1.22 100 1015.1
20260906135943 13 115 0.0 1.6 0.05 1.24 1.22 100 1015.1
20260906135442 13 115 0.0 1.6 0.03 1.22 1.19 100 1015.0
20260906134942 13 115 0.0 1.6 0.03 1.22 1.19 100 1015.0
20260906134513 13 115 0.0 1.6 0.03 1.22 1.19 100 1015.0
20260906133442 13 99 0.0 1.6 0.03 1.22 1.19 100 1014.9
20260906132942 13 96 0.0 1.6 0.05 1.22 1.19 100 1014.9
20260906132442 13 61 1.6 1.6 0.08 1.19 1.17 100 1014.9
20260906131944 13 117 0.0 1.6 0.10 1.19 1.17 100 1014.9
20260906131442 13 103 0.0 0.0 0.10 1.19 1.17 100 1014.9
20260906131012 13 103 0.0 0.0 0.30 1.19 1.17 100 1014.9
20260906130442 13 105 0.0 1.6 0.36 1.19 1.17 100 1014.9
20260906125942 13 109 0.0 1.6 0.61 1.19 1.17 100 1014.9
20260906125443 13 290 0.0 0.0 0.71 1.19 1.17 100 1014.8
20260906124943 13 290 0.0 0.0 0.74 1.19 1.17 100 1014.8
20260906124442 13 290 0.0 3.2 0.81 1.19 1.17 100 1014.8
20260906123942 13 290 0.0 4.8 0.89 1.19 1.17 100 1014.8
20260906123443 13 14 1.6 4.8 0.97 1.19 1.17 100 1014.8
20260906122943 13 279 0.0 0.0 0.94 1.17 1.14 100 1014.8
20260906122443 13 225 0.0 4.8 0.89 1.12 1.09 100 1014.9
20260906121942 13 222 0.0 4.8 0.86 1.09 1.07 100 1014.9
20260906121442 13 11 0.0 3.2 0.91 1.09 1.07 100 1014.9
20260906120942 13 13 0.0 4.8 0.86 0.89 0.86 100 1015.1
20260906120442 13 227 1.6 4.8 0.81 0.84 0.81 100 1015.1
20260906115442 13 161 0.0 1.6 0.46 0.48 0.46 100 1015.1
20260906114442 13 160 0.0 0.0 0.36 0.38 0.36 100 1015.1
20260906113942 13 160 0.0 0.0 0.28 0.30 0.28 100 1015.0
20260906113442 13 160 0.0 0.0 0.20 0.23 0.20 100 1015.0
20260906112942 13 160 0.0 1.6 0.20 0.23 0.20 100 1015.0
20260906112442 13 160 0.0 3.2 0.20 0.23 0.20 100 1014.9
20260906111942 13 160 1.6 3.2 0.20 0.23 0.20 100 1014.9
20260906111442 12 161 0.0 1.6 0.15 0.18 0.15 100 1014.9
20260906110942 12 161 0.0 0.0 0.00 0.03 0.00 100 1014.7
20260906110012 12 161 0.0 0.0 0.00 0.03 0.00 100 1014.7
20260906105442 12 161 0.0 0.0 0.00 0.03 0.00 100 1014.6
20260906104512 12 161 0.0 0.0 0.00 0.03 0.00 100 1014.6
20260906104011 12 161 0.0 0.0 0.00 0.03 0.00 99 1014.6
20260906103511 12 161 0.0 0.0 0.00 0.03 0.00 99 1014.6
20260906102941 12 161 0.0 0.0 0.00 0.03 0.00 99 1014.6
20260906102442 12 161 0.0 0.0 0.00 0.03 0.00 99 1014.6
20260906102012 12 161 0.0 0.0 0.00 0.03 0.00 99 1014.6
20260906101442 12 161 0.0 0.0 0.00 0.03 0.00 99 1014.6
20260906095441 12 161 0.0 0.0 0.00 0.03 0.00 97 1014.6
20260906094941 12 161 0.0 0.0 0.00 0.03 0.00 97 1014.6
20260906094441 12 161 0.0 0.0 0.00 0.03 0.00 97 1014.6
20260906093941 12 161 0.0 0.0 0.00 0.03 0.00 97 1014.6
20260906093441 12 161 0.0 0.0 0.00 0.03 0.00 97 1014.6
20260906092941 12 161 0.0 0.0 0.00 0.03 0.00 96 1014.6
20260906092511 12 161 0.0 0.0 0.00 0.03 0.00 96 1014.5
20260906091941 12 161 0.0 0.0 0.00 0.03 0.00 96 1014.5
20260906091441 12 161 0.0 0.0 0.00 0.03 0.00 96 1014.5
20260906090941 12 161 0.0 0.0 0.00 0.03 0.00 96 1014.4
20260906090441 13 161 0.0 0.0 0.00 0.03 0.00 96 1014.4
20260906085940 13 161 0.0 0.0 0.00 0.03 0.00 96 1014.4
20260906085441 13 161 0.0 0.0 0.00 0.03 0.00 96 1014.4
20260906084940 13 161 0.0 0.0 0.00 0.03 0.00 96 1014.4
20260906084510 13 161 0.0 0.0 0.00 0.03 0.00 96 1014.4
20260906083941 13 161 0.0 0.0 0.00 0.03 0.00 96 1014.5
20260906082940 13 161 0.0 0.0 0.00 0.03 0.00 95 1014.5
20260906082440 13 161 0.0 0.0 0.00 0.03 0.00 95 1014.6
20260906081941 13 161 0.0 0.0 0.00 0.03 0.00 95 1014.6
20260906081440 13 161 0.0 0.0 0.00 0.03 0.00 95 1014.6
20260906080440 13 161 0.0 0.0 0.00 0.03 0.00 95 1014.6
20260906075940 13 161 0.0 0.0 0.00 0.03 0.00 95 1014.6
20260906075510 13 161 0.0 0.0 0.00 0.03 0.00 94 1014.6
20260906074510 13 161 0.0 0.0 0.00 0.03 0.00 94 1014.6
20260906073940 13 161 0.0 0.0 0.00 0.03 0.00 94 1014.6
20260906073440 13 161 0.0 0.0 0.00 0.03 0.00 94 1014.6
20260906072440 13 161 0.0 0.0 0.00 0.03 0.00 94 1014.6
20260906071940 13 161 0.0 0.0 0.00 0.03 0.00 94 1014.6
20260906071510 13 161 0.0 0.0 0.00 0.03 0.00 93 1014.6
20260906070940 13 161 0.0 0.0 0.00 0.03 0.00 93 1014.6
20260906070440 13 161 0.0 0.0 0.00 0.03 0.00 93 1014.6
20260906070010 13 161 0.0 0.0 0.00 0.03 0.00 93 1014.6
20260906065440 13 161 0.0 0.0 0.00 0.03 0.03 93 1014.6
20260906065010 13 161 0.0 0.0 0.00 0.03 0.03 93 1014.6
20260906064439 13 161 0.0 0.0 0.00 0.03 0.03 93 1014.6
20260906063940 13 161 0.0 0.0 0.00 0.03 0.03 93 1014.6
20260906063510 13 161 0.0 0.0 0.00 0.03 0.03 93 1014.6
20260906062940 13 161 0.0 0.0 0.00 0.03 0.03 93 1014.6
20260906062510 13 161 0.0 0.0 0.00 0.03 0.03 92 1014.7
20260906061939 13 161 0.0 0.0 0.00 0.03 0.03 92 1014.7
20260906060939 13 161 0.0 0.0 0.00 0.03 0.03 92 1014.7
20260906060440 13 161 0.0 0.0 0.00 0.03 0.03 92 1014.7
20260906060009 13 161 0.0 1.6 0.00 0.03 0.03 92 1014.7
20260906055510 13 161 0.0 1.6 0.00 0.03 0.03 91 1014.7
20260906055009 13 161 0.0 1.6 0.00 0.03 0.03 91 1014.7
20260906053510 13 161 0.0 0.0 0.00 0.03 0.03 91 1014.9
20260906053009 13 161 0.0 0.0 0.00 0.03 0.03 90 1014.9
20260906052010 13 161 0.0 0.0 0.00 0.03 0.03 89 1014.8
20260906051439 13 161 0.0 0.0 0.00 0.03 0.03 89 1014.8
20260906051009 13 161 0.0 0.0 0.00 0.03 0.03 89 1014.8
20260906050439 13 161 0.0 0.0 0.00 0.03 0.03 88 1014.8
20260906050009 13 161 0.0 0.0 0.00 0.03 0.03 88 1014.8
20260906045509 13 161 0.0 0.0 0.00 0.03 0.03 87 1014.9
20260906045009 14 161 0.0 0.0 0.00 0.03 0.03 87 1014.9
20260906044509 14 161 0.0 0.0 0.00 0.03 0.03 86 1014.9
20260906044009 14 161 0.0 0.0 0.00 0.03 0.03 86 1015.0
20260906043509 14 161 0.0 0.0 0.00 0.03 0.03 85 1015.0
20260906043009 14 161 0.0 0.0 0.00 0.03 0.03 85 1015.0
20260906042509 14 161 0.0 1.6 0.00 0.03 0.03 85 1015.0
20260906042009 14 161 0.0 1.6 0.00 0.03 0.03 85 1015.0
20260906041509 14 161 0.0 0.0 0.00 0.03 0.03 84 1015.0
20260906041009 14 161 0.0 0.0 0.00 0.03 0.03 84 1015.0
20260906040508 15 161 0.0 0.0 0.00 0.03 0.03 83 1015.1
20260906035438 15 161 0.0 0.0 0.00 0.03 0.03 82 1014.9
20260906034438 15 161 0.0 0.0 0.00 0.03 0.03 82 1014.9
20260906034008 15 161 0.0 0.0 0.00 0.03 0.03 82 1014.7
20260906033438 15 161 0.0 0.0 0.00 0.03 0.03 82 1014.8
20260906032509 15 161 0.0 0.0 0.00 0.03 0.03 81 1014.7
20260906031938 15 161 0.0 0.0 0.00 0.03 0.03 80 1014.7
20260906031508 16 161 0.0 0.0 0.00 0.03 0.03 80 1014.7
20260906031008 16 161 0.0 0.0 0.00 0.03 0.03 80 1014.7
20260906030439 16 161 0.0 0.0 0.00 0.03 0.03 80 1014.7
20260906025508 16 161 0.0 0.0 0.00 0.03 0.03 79 1014.8
20260906025008 16 161 0.0 0.0 0.00 0.03 0.03 79 1014.8
20260906024008 16 161 0.0 1.6 0.00 0.03 0.03 77 1014.8
20260906023508 17 257 0.0 0.0 0.00 0.03 0.03 76 1014.8
20260906023009 17 257 0.0 0.0 0.00 0.03 0.03 76 1014.8
20260906022508 17 257 0.0 0.0 0.00 0.03 0.03 75 1014.8
20260906022008 17 257 0.0 0.0 0.00 0.03 0.03 75 1014.8
20260906021508 17 257 0.0 3.2 0.00 0.03 0.03 74 1014.8
20260906020938 17 257 0.0 3.2 0.00 0.03 0.03 74 1014.8
20260906020508 17 288 0.0 3.2 0.00 0.03 0.03 74 1014.8
20260906020009 18 292 0.0 0.0 0.00 0.03 0.03 73 1014.8
20260906015508 18 291 0.0 0.0 0.00 0.03 0.03 72 1014.8
20260906015008 18 292 0.0 0.0 0.00 0.03 0.03 71 1014.8
20260906014508 18 292 0.0 0.0 0.00 0.03 0.03 71 1014.8
20260906014008 18 292 0.0 0.0 0.00 0.03 0.03 70 1014.8
20260906013508 18 292 0.0 0.0 0.00 0.03 0.03 69 1014.8
20260906013008 18 292 0.0 4.8 0.00 0.03 0.03 69 1014.8
20260906012438 18 292 0.0 4.8 0.00 0.03 0.03 70 1014.8
20260906012008 18 132 0.0 6.4 0.00 0.03 0.03 70 1014.8
20260906011508 18 68 0.0 6.4 0.00 0.03 0.03 70 1014.8
20260906011007 18 75 3.2 4.8 0.00 0.03 0.03 71 1014.8
20260906010508 18 104 4.8 4.8 0.00 0.03 0.03 70 1014.8
20260906010007 18 213 0.0 0.0 0.00 0.03 0.03 71 1014.8
20260906005509 18 219 0.0 0.0 0.00 0.03 0.03 70 1014.8
20260906005008 18 181 0.0 0.0 0.00 0.03 0.03 69 1014.8
20260906004007 19 236 0.0 0.0 0.00 0.03 0.03 69 1014.8
20260906003507 19 250 0.0 0.0 0.00 0.03 0.03 69 1014.8
20260906003007 19 263 0.0 0.0 0.00 0.03 0.03 69 1014.8
20260906002438 20 262 0.0 0.0 0.00 0.03 0.03 68 1014.7
20260906002007 20 49 0.0 3.2 0.00 0.03 0.03 65 1014.7
20260906001508 20 38 0.0 6.4 0.00 0.03 0.03 65 1014.7
20260906001008 20 243 0.0 6.4 0.00 0.03 0.03 64 1014.8
20260906000507 20 192 0.0 0.0 0.00 0.03 0.03 65 1014.8
20260906000007 20 270 0.0 0.0 0.00 0.03 0.03 65 1014.8
20260905235437 20 283 0.0 1.6 0.00 0.03 0.03 65 1014.8
20260905234507 20 318 0.0 3.2 0.00 0.03 0.03 62 1014.8
20260905233937 20 27 0.0 4.8 0.00 0.03 0.03 61 1014.9
20260905233007 20 261 0.0 0.0 0.00 0.03 0.03 64 1014.9
20260905231437 20 256 0.0 0.0 0.00 0.03 0.03 65 1015.0
20260905230937 20 266 0.0 0.0 0.00 0.03 0.03 65 1015.1
20260905230507 20 277 0.0 3.2 0.00 0.03 0.03 66 1015.1
20260905225507 19 304 3.2 4.8 0.00 0.03 0.03 66 1015.2
20260905225007 19 292 0.0 0.0 0.00 0.03 0.03 69 1015.2
20260905224437 19 286 0.0 1.6 0.00 0.03 0.03 69 1015.2
20260905224007 19 5 0.0 1.6 0.00 0.03 0.03 69 1015.3
20260905223007 18 125 0.0 1.6 0.00 0.03 0.03 70 1015.3
20260905222507 18 65 0.0 6.4 0.00 0.03 0.03 71 1015.4
20260905221507 18 360 4.8 6.4 0.00 0.03 0.03 70 1015.4
20260905220937 18 63 1.6 4.8 0.00 0.03 0.03 71 1015.5
20260905220507 18 355 0.0 4.8 0.00 0.03 0.03 69 1015.5
20260905220007 18 74 3.2 4.8 0.00 0.03 0.03 67 1015.5
20260905215507 18 64 0.0 4.8 0.00 0.03 0.03 65 1015.6
20260905215006 19 66 0.0 4.8 0.00 0.03 0.03 66 1015.6
20260905214507 19 40 4.8 8.0 0.00 0.03 0.03 64 1015.6
20260905214007 19 55 3.2 8.0 0.00 0.03 0.03 64 1015.7
20260905213506 19 19 1.6 9.7 0.00 0.03 0.03 64 1015.7
20260905213007 19 105 1.6 9.7 0.00 0.03 0.03 63 1015.7
20260905212437 19 64 1.6 8.0 0.00 0.03 0.03 65 1015.8
20260905212006 18 142 0.0 3.2 0.00 0.03 0.03 66 1015.8
20260905211437 18 161 0.0 4.8 0.00 0.03 0.03 65 1015.8
20260905211007 18 161 3.2 4.8 0.00 0.03 0.03 65 1015.9
20260905210507 18 5 0.0 4.8 0.00 0.03 0.03 68 1015.9
20260905210006 18 26 0.0 4.8 0.00 0.03 0.03 70 1015.9
20260905205507 18 27 4.8 9.7 0.00 0.03 0.03 69 1016.1
20260905205007 18 24 1.6 9.7 0.00 0.03 0.03 68 1016.1
20260905204436 18 40 0.0 8.0 0.00 0.03 0.03 69 1016.1
20260905204006 18 32 0.0 8.0 0.00 0.03 0.03 69 1016.2
20260905203506 18 334 0.0 4.8 0.00 0.03 0.03 73 1016.2
20260905202936 18 257 0.0 3.2 0.00 0.03 0.03 74 1016.2
20260905202506 17 168 0.0 3.2 0.00 0.03 0.03 75 1016.1
20260905202006 17 142 0.0 6.4 0.00 0.03 0.03 74 1016.1
20260905201436 17 125 0.0 6.4 0.00 0.03 0.03 75 1016.1
20260905201006 17 68 3.2 4.8 0.00 0.05 0.03 76 1016.2
20260905200436 17 153 0.0 6.4 0.00 0.05 0.03 76 1016.2
20260905195936 17 122 4.8 6.4 0.00 0.08 0.03 76 1016.2
20260905195436 17 162 0.0 8.0 0.00 0.08 0.03 78 1016.3
20260905194936 17 155 3.2 9.7 0.00 0.08 0.03 79 1016.3
20260905194506 17 153 3.2 9.7 0.00 0.10 0.03 79 1016.3
20260905193936 17 134 0.0 8.0 0.00 0.15 0.03 79 1016.4